Flag for Germany Weather past 2 weeks in Frankfurt an der Oder, Brandenburg, Germany

40 °F

Passing clouds.

Feels Like: 38 °F
Forecast: 34 / 49 °F
Wind: 3 mph from East

Location: Lindenberg

Current Time: Oct 10, 2015 at 2:39:58 AM

Latest Report: Oct 10, 2015 at 2:00 AM

Visibility: 16 mi

Pressure: 30.25 "Hg

Humidity: 59%

Dew point: 26 °F

Location of Frankfurt an der OderLocation

Historic Weather in Frankfurt an der Oder — Graph


Frankfurt an der Oder temperature yesterday

Maximum temperature yesterday: 54 °F (at 2:00 PM)
Minimum temperature yesterday: 42 °F (at 9:00 AM)
Average temperature yesterday: 47 °F

Past Weeks' High & Low Weather Summary

High69 °F (Oct 4, 3:00 PM)97% (Sep 26, 8:00 AM)30.68 "Hg (Sep 26, 8:00 AM)
Low40 °F (Oct 2, 7:00 AM)33% (Oct 2, 4:00 PM)29.81 "Hg (Oct 6, 5:00 PM)
Average53 °F72%30.22 "Hg
* Reported Sep 25 1:00 AM — Oct 10 1:00 AM, Frankfurt an der Oder, Weather by CustomWeather, © 2015

Note: Actual official high and low records may vary slightly from our data, if they occured in-between our weather recording intervals... More about our weather records


Frankfurt an der Oder weather history for previous 24 hours

Time TempWeatherWind HumidityBarometerVisibility
1:00 AM
Sat, Oct 10
41 °FOvercast.3 mph56%30.25 "Hg16 mi
12:00 AM42 °FOvercast.3 mph55%30.25 "Hg19 mi
10:00 PM
Fri, Oct 9
45 °FOvercast.3 mph52%30.25 "Hg19 mi
9:00 PM45 °FOvercast.3 mph57%30.24 "Hg16 mi
8:00 PM46 °FPassing clouds.3 mph57%30.23 "Hg16 mi
7:00 PM47 °FPassing clouds.2 mph57%30.22 "Hg16 mi
6:00 PM50 °FPartly sunny.3 mph52%30.20 "Hg12 mi
5:00 PM53 °FPartly sunny.3 mph47%30.19 "Hg12 mi
4:00 PM53 °FPartly sunny.3 mph50%30.19 "Hg12 mi
3:00 PM53 °FOvercast.3 mph49%30.19 "Hg12 mi
2:00 PM54 °FPartly sunny.3 mph51%30.19 "Hg12 mi
1:00 PM50 °FPartly sunny.3 mph57%30.20 "Hg12 mi
12:00 PM47 °FPartly sunny.2 mph63%30.20 "Hg12 mi
11:00 AM45 °FPartly sunny.3 mph66%30.21 "Hg9 mi
10:00 AM43 °FOvercast.2 mph70%30.20 "Hg13 mi
9:00 AM42 °FOvercast.2 mph74%30.19 "Hg6 mi
8:00 AM43 °FOvercast.2 mph80%30.18 "Hg6 mi
7:00 AM44 °FOvercast.2 mph78%30.16 "Hg6 mi
4:00 AM45 °FOvercast.3 mph77%30.16 "Hg6 mi
3:00 AM45 °FOvercast.3 mph83%30.16 "Hg6 mi
2:00 AM46 °FLight rain. Overcast.2 mph87%30.16 "Hg5 mi
Weather by CustomWeather, © 2015

See weather overviewHow to use our weather pages